This is the latest recevied weather packets stored in our database for station/object SP2WM. If no packets are shown the sender has not sent any weather packets the latest 10 day(s).
| Time | Temp. | Humidity | Pressure | Rain* | Wind** | Luminosity | Snow |
|---|---|---|---|---|---|---|---|
| 1777965026 | 20.56° C | 67% | 1007.9 hPa | 0 mm | - | - | - |
| 1777964443 | 20.56° C | 67% | 1008.1 hPa | 0 mm | - | - | - |
| 1777963844 | 20.56° C | 68% | 1008.2 hPa | 0 mm | - | - | - |
| 1777963241 | 20° C | 70% | 1008.3 hPa | 0 mm | - | - | - |
| 1777962625 | 18.89° C | 72% | 1008.3 hPa | 0 mm | - | - | - |
| 1777962030 | 18.33° C | 73% | 1008.4 hPa | 0 mm | - | - | - |
| 1777961426 | 18.33° C | 74% | 1008.3 hPa | 0 mm | - | - | - |
| 1777941024 | 15.56° C | 79% | 1009 hPa | 0 mm | - | - | - |
| 1777940425 | 15.56° C | 79% | 1008.9 hPa | 0 mm | - | - | - |
| 1777938629 | 16.11° C | 77% | 1009 hPa | 0 mm | - | - | - |
| 1777932031 | 17.78° C | 69% | 1009.1 hPa | 0 mm | - | - | - |
| 1777919427 | 20.56° C | 55% | 1008.8 hPa | 0 mm | - | - | - |
| 1777918230 | 21.11° C | 56% | 1008.5 hPa | 0 mm | - | - | - |
| 1777902631 | 26.67° C | 40% | 1008.3 hPa | 0 mm | - | - | - |
| 1777899642 | 26.67° C | 39% | 1008.6 hPa | 0 mm | - | - | - |
| 1777897830 | 26.67° C | 36% | 1008.7 hPa | 0 mm | - | - | - |
| 1777897225 | 26.11° C | 37% | 1008.7 hPa | 0 mm | - | - | - |
| 1777896639 | 26.67° C | 37% | 1008.8 hPa | 0 mm | - | - | - |
| 1777896024 | 26.67° C | 36% | 1008.7 hPa | 0 mm | - | - | - |
| 1777895443 | 26.67° C | 35% | 1009.1 hPa | 0 mm | - | - | - |
| 1777894239 | 26.11° C | 37% | 1009.2 hPa | 0 mm | - | - | - |
| 1777893624 | 26.11° C | 37% | 1009.1 hPa | 0 mm | - | - | - |
| 1777893022 | 26.11° C | 37% | 1009.2 hPa | 0 mm | - | - | - |
| 1777879833 | 21.11° C | 45% | 1009.5 hPa | 0 mm | - | - | - |
| 1777879238 | 20.56° C | 46% | 1009.6 hPa | 0 mm | - | - | - |
* Rain latest hour (hover to see other rain measurements)
** Current wind speed in m/s (hover to see current wind gust speed)